.
WxDataArchive / Data Records for 2012-02-04
2012-02-03 February 2012 2012-02-05

Data Records for Saturday, 04 February 2012

Time	Temp	Chill	HIndex	Humid	Dewpt	 Wind 	HiWind	WindDir	Rain 	Barom 
-----	----	-----	------	-----	-----	------	------	-------	-----	----- 
00:00	34.9	34.9	34.9	86	31.1	2	7	112	0.00	30.362 
00:05	34.9	34.9	34.9	86	31.1	3	9	90	0.00	30.362 
00:10	34.9	34.9	34.9	87	31.4	2	7	90	0.00	30.362 
00:15	34.7	34.7	34.7	87	31.2	2	6	90	0.00	30.358 
00:20	34.7	34.7	34.7	86	30.9	3	11	90	0.00	30.358 
00:25	34.6	31.1	34.6	86	30.9	4	11	112	0.00	30.358 
00:30	34.6	31.1	34.6	85	30.6	4	9	90	0.00	30.359 
00:35	34.6	34.6	34.6	85	30.6	2	10	68	0.00	30.359 
00:40	34.6	34.6	34.6	85	30.6	2	9	90	0.00	30.359 
00:45	34.4	34.4	34.4	84	30.1	3	6	90	0.00	30.364 
00:50	34.4	34.4	34.4	84	30.1	2	6	112	0.00	30.364 
00:55	34.4	34.4	34.4	84	30.1	3	7	90	0.00	30.364 
01:00	34.4	34.4	34.4	84	30.1	3	10	90	0.00	30.368 
01:05	34.4	34.4	34.4	84	30.1	3	7	90	0.00	30.368 
01:10	34.4	34.4	34.4	84	30.1	3	7	112	0.00	30.368 
01:15	34.4	34.4	34.4	84	30.1	3	9	112	0.00	30.358 
01:20	34.3	34.3	34.3	85	30.3	2	10	90	0.00	30.358 
01:25	34.3	34.3	34.3	85	30.3	2	5	90	0.00	30.358 
01:30	34.3	34.3	34.3	85	30.3	2	5	112	0.00	30.357 
01:35	34.3	34.3	34.3	85	30.3	3	9	112	0.00	30.357 
01:40	34.3	34.3	34.3	85	30.3	2	4	90	0.00	30.357 
01:45	34.1	34.1	34.1	85	30.1	1	4	112	0.00	30.355 
01:50	34.0	34.0	34.0	86	30.3	3	7	112	0.00	30.355 
01:55	33.8	33.8	33.8	86	30.1	2	5	90	0.00	30.355 
02:00	33.8	33.8	33.8	87	30.3	1	4	112	0.00	30.357 
02:05	33.7	33.7	33.7	88	30.5	1	4	112	0.00	30.357 
02:10	33.5	33.5	33.5	88	30.3	1	4	68	0.00	30.357 
02:15	33.4	33.4	33.4	89	30.5	0	2	338	0.00	30.359 
02:20	33.2	33.2	33.2	89	30.3	0	2	90	0.00	30.359 
02:25	33.1	33.1	33.1	90	30.5	0	1	90	0.00	30.359 
02:30	32.9	32.9	32.9	90	30.3	0	2	90	0.00	30.358 
02:35	32.9	32.9	32.9	91	30.6	1	3	112	0.00	30.358 
02:40	32.8	32.8	32.8	91	30.5	1	3	112	0.00	30.358 
02:45	32.8	32.8	32.8	91	30.5	1	2	112	0.00	30.355 
02:50	32.7	32.7	32.7	92	30.6	0	2	112	0.00	30.355 
02:55	32.7	32.7	32.7	92	30.6	0	1	112	0.00	30.355 
03:00	32.7	32.7	32.7	92	30.6	0	0	---	0.00	30.353 
03:05	32.7	32.7	32.7	92	30.6	0	1	112	0.00	30.353 
03:10	32.5	32.5	32.5	92	30.4	0	0	---	0.00	30.353 
03:15	32.5	32.5	32.5	92	30.4	0	0	---	0.00	30.355 
03:20	32.5	32.5	32.5	93	30.7	0	0	---	0.00	30.355 
03:25	32.5	32.5	32.5	93	30.7	0	0	---	0.00	30.355 
03:30	32.5	32.5	32.5	93	30.7	0	1	112	0.00	30.353 
03:35	32.5	32.5	32.5	93	30.7	0	0	---	0.00	30.353 
03:40	32.5	32.5	32.5	93	30.7	0	0	---	0.00	30.353 
03:45	32.4	32.4	32.4	93	30.6	0	0	---	0.00	30.344 
03:50	32.4	32.4	32.4	93	30.6	0	0	---	0.00	30.344 
03:55	32.4	32.4	32.4	93	30.6	0	0	---	0.00	30.344 
04:00	32.4	32.4	32.4	93	30.6	0	0	---	0.00	30.339 
04:05	32.4	32.4	32.4	94	30.9	0	0	---	0.00	30.339 
04:10	32.4	32.4	32.4	94	30.9	0	0	---	0.00	30.339 
04:15	32.4	32.4	32.4	94	30.9	0	0	---	0.00	30.337 
04:20	32.2	32.2	32.2	94	30.7	0	0	---	0.00	30.337 
04:25	32.2	32.2	32.2	94	30.7	0	0	---	0.00	30.337 
04:30	32.4	32.4	32.4	94	30.9	0	0	---	0.00	30.336 
04:35	32.4	32.4	32.4	94	30.9	0	0	---	0.00	30.336 
04:40	32.4	32.4	32.4	94	30.9	0	0	---	0.00	30.336 
04:45	32.4	32.4	32.4	94	30.9	0	0	---	0.00	30.339 
04:50	32.4	32.4	32.4	94	30.9	0	0	---	0.00	30.339 
04:55	32.4	32.4	32.4	94	30.9	0	0	---	0.00	30.339 
05:00	32.4	32.4	32.4	94	30.9	0	0	---	0.00	30.336 
05:05	32.4	32.4	32.4	95	31.1	0	0	---	0.00	30.336 
05:10	32.4	32.4	32.4	95	31.1	0	0	---	0.00	30.336 
05:15	32.4	32.4	32.4	95	31.1	0	0	---	0.00	30.341 
05:20	32.4	32.4	32.4	95	31.1	0	0	---	0.00	30.341 
05:25	32.4	32.4	32.4	95	31.1	0	0	---	0.00	30.341 
05:30	32.4	32.4	32.4	95	31.1	0	0	---	0.00	30.343 
05:35	32.4	32.4	32.4	95	31.1	0	0	---	0.00	30.343 
05:40	32.2	32.2	32.2	95	30.9	0	0	---	0.00	30.343 
05:45	32.2	32.2	32.2	95	30.9	0	0	---	0.00	30.343 
05:50	32.2	32.2	32.2	95	30.9	0	0	---	0.00	30.343 
05:55	32.2	32.2	32.2	95	30.9	0	0	---	0.00	30.343 
06:00	32.2	32.2	32.2	95	30.9	0	0	---	0.00	30.334 
06:05	32.2	32.2	32.2	95	30.9	0	0	---	0.00	30.334 
06:10	32.2	32.2	32.2	95	30.9	0	0	---	0.00	30.334 
06:15	32.2	32.2	32.2	95	30.9	0	0	---	0.00	30.333 
06:20	32.2	32.2	32.2	95	30.9	0	0	---	0.00	30.333 
06:25	32.2	32.2	32.2	95	30.9	0	0	---	0.00	30.333 
06:30	32.2	32.2	32.2	95	30.9	0	0	---	0.00	30.322 
06:35	32.2	32.2	32.2	95	30.9	0	0	---	0.00	30.322 
06:40	32.2	32.2	32.2	95	30.9	0	0	---	0.00	30.322 
06:45	32.1	32.1	32.1	95	30.8	0	0	---	0.00	30.316 
06:50	32.1	32.1	32.1	95	30.8	0	0	---	0.00	30.316 
06:55	32.1	32.1	32.1	95	30.8	0	0	---	0.00	30.316 
07:00	32.1	32.1	32.1	95	30.8	0	0	---	0.00	30.303 
07:05	32.1	32.1	32.1	95	30.8	0	0	---	0.00	30.303 
07:10	31.9	31.9	31.9	95	30.6	0	0	---	0.00	30.303 
07:15	31.9	31.9	31.9	95	30.6	0	0	---	0.00	30.304 
07:20	31.9	31.9	31.9	95	30.6	0	0	---	0.00	30.304 
07:25	31.9	31.9	31.9	95	30.6	0	0	---	0.00	30.304 
07:30	32.1	32.1	32.1	95	30.8	0	0	---	0.00	30.304 
07:35	32.1	32.1	32.1	95	30.8	0	0	---	0.00	30.304 
07:40	32.1	32.1	32.1	96	31.1	0	0	---	0.00	30.304 
07:45	32.2	32.2	32.2	96	31.2	0	0	---	0.00	30.298 
07:50	32.4	32.4	32.4	96	31.4	0	0	---	0.00	30.298 
07:55	32.4	32.4	32.4	96	31.4	0	0	---	0.00	30.298 
08:00	32.4	32.4	32.4	96	31.4	0	0	---	0.00	30.294 
08:05	32.4	32.4	32.4	96	31.4	0	0	---	0.00	30.294 
08:10	32.4	32.4	32.4	96	31.4	0	0	---	0.00	30.294 
08:15	32.5	32.5	32.5	96	31.5	0	0	---	0.00	30.294 
08:20	32.5	32.5	32.5	96	31.5	0	0	---	0.00	30.294 
08:25	32.5	32.5	32.5	96	31.5	0	0	---	0.00	30.294 
08:30	32.5	32.5	32.5	96	31.5	0	0	---	0.00	30.303 
08:35	32.5	32.5	32.5	96	31.5	0	0	---	0.00	30.303 
08:40	32.5	32.5	32.5	96	31.5	0	0	---	0.00	30.303 
08:45	32.5	32.5	32.5	96	31.5	0	0	---	0.00	30.299 
08:50	32.5	32.5	32.5	96	31.5	0	0	---	0.00	30.299 
08:55	32.5	32.5	32.5	96	31.5	0	0	---	0.00	30.299 
09:00	32.5	32.5	32.5	96	31.5	0	0	---	0.00	30.299 
09:05	32.7	32.7	32.7	96	31.7	0	0	---	0.00	30.299 
09:10	32.7	32.7	32.7	96	31.7	0	0	---	0.00	30.299 
09:15	32.7	32.7	32.7	96	31.7	0	0	---	0.00	30.303 
09:20	32.7	32.7	32.7	96	31.7	0	0	---	0.00	30.303 
09:25	32.7	32.7	32.7	96	31.7	0	0	---	0.00	30.303 
09:30	32.5	32.5	32.5	96	31.5	0	0	---	0.00	30.303 
09:35	32.5	32.5	32.5	96	31.5	0	0	---	0.00	30.303 
09:40	32.5	32.5	32.5	96	31.5	0	0	---	0.00	30.303 
09:45	32.5	32.5	32.5	96	31.5	0	0	---	0.00	30.298 
09:50	32.5	32.5	32.5	96	31.5	0	0	---	0.00	30.298 
09:55	32.5	32.5	32.5	96	31.5	0	0	---	0.00	30.298 
10:00	32.5	32.5	32.5	96	31.5	0	0	---	0.00	30.291 
10:05	32.5	32.5	32.5	96	31.5	0	0	---	0.00	30.291 
10:10	32.5	32.5	32.5	96	31.5	0	0	---	0.00	30.291 
10:15	32.7	32.7	32.7	96	31.7	1	6	90	0.00	30.300 
10:20	32.5	32.5	32.5	96	31.5	3	7	112	0.00	30.300 
10:25	32.5	32.5	32.5	96	31.5	2	5	112	0.00	30.300 
10:30	32.5	28.7	32.5	96	31.5	4	9	90	0.00	30.293 
10:35	32.5	32.5	32.5	96	31.5	2	10	90	0.00	30.293 
10:40	32.5	32.5	32.5	96	31.5	3	6	90	0.00	30.293 
10:45	32.7	32.7	32.7	96	31.7	1	4	112	0.00	30.287 
10:50	32.7	32.7	32.7	95	31.4	3	7	112	0.00	30.287 
10:55	32.7	32.7	32.7	95	31.4	2	6	112	0.00	30.287 
11:00	32.7	32.7	32.7	95	31.4	2	9	90	0.00	30.278 
11:05	32.7	32.7	32.7	95	31.4	1	4	112	0.00	30.278 
11:10	32.8	32.8	32.8	95	31.5	1	7	112	0.00	30.278 
11:15	32.8	32.8	32.8	95	31.5	2	5	90	0.00	30.282 
11:20	32.8	32.8	32.8	95	31.5	2	5	112	0.00	30.282 
11:25	32.8	32.8	32.8	95	31.5	2	7	112	0.00	30.282 
11:30	32.8	32.8	32.8	95	31.5	2	6	112	0.00	30.272 
11:35	32.8	32.8	32.8	95	31.5	1	7	90	0.00	30.272 
11:40	32.9	32.9	32.9	95	31.6	1	3	45	0.00	30.272 
11:45	32.9	32.9	32.9	95	31.6	2	6	90	0.00	30.271 
11:50	32.9	32.9	32.9	95	31.6	3	9	90	0.00	30.271 
11:55	32.9	29.1	32.9	94	31.4	4	7	112	0.00	30.271 
12:00	32.9	32.9	32.9	94	31.4	3	6	112	0.00	30.268 
12:05	32.9	32.9	32.9	94	31.4	3	9	112	0.00	30.268 
12:10	32.9	29.1	32.9	94	31.4	4	7	112	0.00	30.268 
12:15	33.2	33.2	33.2	94	31.7	1	4	90	0.00	30.262 
12:20	33.4	33.4	33.4	94	31.9	2	7	112	0.00	30.262 
12:25	33.5	33.5	33.5	93	31.7	2	9	112	0.00	30.262 
12:30	33.5	33.5	33.5	93	31.7	2	6	112	0.00	30.253 
12:35	33.7	33.7	33.7	93	31.9	2	7	90	0.00	30.253 
12:40	33.8	33.8	33.8	93	32.0	2	4	90	0.01	30.253 
12:45	33.8	33.8	33.8	92	31.7	2	6	90	0.00	30.251 
12:50	34.0	34.0	34.0	92	31.9	1	5	112	0.01	30.251 
12:55	34.3	34.3	34.3	92	32.2	1	4	112	0.01	30.251 
13:00	34.4	34.4	34.4	92	32.3	1	3	112	0.00	30.246 
13:05	34.6	34.6	34.6	92	32.5	1	6	112	0.01	30.246 
13:10	34.4	34.4	34.4	91	32.0	2	6	90	0.01	30.246 
13:15	34.6	34.6	34.6	91	32.2	1	5	90	0.01	30.240 
13:20	34.6	34.6	34.6	91	32.2	1	6	112	0.00	30.240 
13:25	34.9	34.9	34.9	91	32.5	1	5	112	0.01	30.240 
13:30	34.7	34.7	34.7	90	32.1	2	7	90	0.01	30.236 
13:35	34.6	34.6	34.6	90	32.0	2	6	90	0.00	30.236 
13:40	34.7	34.7	34.7	90	32.1	1	5	90	0.01	30.236 
13:45	34.7	34.7	34.7	90	32.1	2	5	90	0.01	30.227 
13:50	34.7	34.7	34.7	89	31.8	2	6	112	0.00	30.227 
13:55	34.9	34.9	34.9	89	32.0	1	4	112	0.01	30.227 
14:00	34.9	34.9	34.9	89	32.0	2	7	112	0.01	30.215 
14:05	34.6	34.6	34.6	89	31.7	3	5	90	0.00	30.215 
14:10	34.6	34.6	34.6	89	31.7	1	4	112	0.01	30.215 
14:15	34.6	34.6	34.6	89	31.7	2	5	112	0.01	30.204 
14:20	34.9	34.9	34.9	89	32.0	1	5	112	0.00	30.204 
14:25	35.0	35.0	35.0	89	32.1	1	4	90	0.01	30.204 
14:30	35.2	35.2	35.2	88	32.0	1	4	68	0.01	30.192 
14:35	35.0	35.0	35.0	88	31.8	2	6	112	0.00	30.192 
14:40	34.7	34.7	34.7	88	31.5	3	6	90	0.01	30.192 
14:45	34.7	34.7	34.7	88	31.5	1	3	68	0.01	30.191 
14:50	34.9	34.9	34.9	88	31.7	0	3	68	0.00	30.191 
14:55	35.0	35.0	35.0	88	31.8	1	2	45	0.01	30.191 
15:00	35.0	35.0	35.0	88	31.8	1	4	68	0.00	30.205 
15:05	35.0	35.0	35.0	88	31.8	1	5	90	0.01	30.205 
15:10	35.2	35.2	35.2	88	32.0	1	5	90	0.01	30.205 
15:15	35.2	35.2	35.2	88	32.0	1	4	135	0.00	30.197 
15:20	35.3	35.3	35.3	87	31.8	1	3	45	0.01	30.197 
15:25	35.2	35.2	35.2	87	31.7	1	6	90	0.00	30.197 
15:30	35.2	35.2	35.2	87	31.7	1	4	90	0.01	30.200 
15:35	35.2	35.2	35.2	87	31.7	2	5	112	0.01	30.200 
15:40	35.3	35.3	35.3	87	31.8	1	4	90	0.00	30.200 
15:45	35.3	35.3	35.3	87	31.8	1	4	90	0.01	30.198 
15:50	35.3	35.3	35.3	87	31.8	1	2	90	0.00	30.198 
15:55	35.3	35.3	35.3	86	31.5	2	6	90	0.01	30.198 
16:00	35.5	35.5	35.5	86	31.7	1	3	112	0.00	30.196 
16:05	35.6	35.6	35.6	86	31.8	1	3	90	0.01	30.196 
16:10	35.6	35.6	35.6	86	31.8	1	4	90	0.00	30.196 
16:15	35.6	35.6	35.6	86	31.8	1	5	90	0.01	30.193 
16:20	35.5	35.5	35.5	86	31.7	1	6	112	0.00	30.193 
16:25	35.5	35.5	35.5	86	31.7	1	4	112	0.01	30.193 
16:30	35.3	35.3	35.3	86	31.5	1	6	112	0.00	30.195 
16:35	35.2	35.2	35.2	85	31.2	2	6	68	0.01	30.195 
16:40	35.0	35.0	35.0	86	31.2	1	4	45	0.00	30.195 
16:45	35.0	35.0	35.0	86	31.2	2	6	112	0.00	30.187 
16:50	34.9	34.9	34.9	86	31.1	2	5	112	0.00	30.187 
16:55	34.9	34.9	34.9	86	31.1	1	5	112	0.01	30.187 
17:00	34.9	34.9	34.9	86	31.1	1	5	112	0.00	30.189 
17:05	34.9	34.9	34.9	86	31.1	1	3	22	0.00	30.189 
17:10	34.9	34.9	34.9	87	31.4	1	3	112	0.00	30.189 
17:15	34.7	34.7	34.7	87	31.2	1	4	112	0.01	30.196 
17:20	34.7	34.7	34.7	87	31.2	0	2	112	0.00	30.196 
17:25	34.7	34.7	34.7	87	31.2	0	1	112	0.00	30.196 
17:30	34.7	34.7	34.7	87	31.2	1	2	112	0.00	30.189 
17:35	34.6	34.6	34.6	87	31.1	0	2	112	0.00	30.189 
17:40	34.4	34.4	34.4	88	31.2	0	1	112	0.00	30.189 
17:45	34.4	34.4	34.4	88	31.2	0	0	---	0.00	30.180 
17:50	34.3	34.3	34.3	88	31.1	0	0	---	0.00	30.180 
17:55	34.1	34.1	34.1	88	30.9	0	1	112	0.00	30.180 
18:00	34.1	34.1	34.1	88	30.9	0	1	112	0.00	30.176 
18:05	34.0	34.0	34.0	88	30.8	0	0	---	0.00	30.176 
18:10	34.0	34.0	34.0	88	30.8	0	1	112	0.01	30.176 
18:15	33.8	33.8	33.8	89	30.9	0	0	---	0.00	30.176 
18:20	33.8	33.8	33.8	89	30.9	0	1	112	0.00	30.176 
18:25	33.8	33.8	33.8	89	30.9	0	1	112	0.00	30.176 
18:30	33.8	33.8	33.8	89	30.9	0	0	---	0.00	30.174 
18:35	33.8	33.8	33.8	89	30.9	0	0	---	0.00	30.174 
18:40	33.8	33.8	33.8	89	30.9	0	1	112	0.00	30.174 
18:45	33.8	33.8	33.8	89	30.9	0	1	112	0.00	30.171 
18:50	33.8	33.8	33.8	89	30.9	0	0	---	0.00	30.171 
18:55	33.7	33.7	33.7	90	31.1	0	0	---	0.00	30.171 
19:00	33.7	33.7	33.7	90	31.1	0	0	---	0.00	30.172 
19:05	33.7	33.7	33.7	90	31.1	0	0	---	0.00	30.172 
19:10	33.7	33.7	33.7	90	31.1	0	0	---	0.00	30.172 
19:15	33.7	33.7	33.7	90	31.1	0	0	---	0.00	30.169 
19:20	33.7	33.7	33.7	90	31.1	0	0	---	0.00	30.169 
19:25	33.7	33.7	33.7	90	31.1	0	0	---	0.00	30.169 
19:30	33.5	33.5	33.5	90	30.9	0	0	---	0.00	30.177 
19:35	33.5	33.5	33.5	90	30.9	0	0	---	0.00	30.177 
19:40	33.5	33.5	33.5	90	30.9	0	0	---	0.00	30.177 
19:45	33.5	33.5	33.5	90	30.9	0	0	---	0.00	30.174 
19:50	33.5	33.5	33.5	90	30.9	0	0	---	0.00	30.174 
19:55	33.5	33.5	33.5	90	30.9	0	0	---	0.00	30.174 
20:00	33.5	33.5	33.5	90	30.9	0	0	---	0.00	30.178 
20:05	33.4	33.4	33.4	90	30.8	0	0	---	0.00	30.178 
20:10	33.4	33.4	33.4	90	30.8	0	0	---	0.00	30.178 
20:15	33.4	33.4	33.4	91	31.1	0	0	---	0.00	30.177 
20:20	33.2	33.2	33.2	91	30.9	0	0	---	0.00	30.177 
20:25	33.2	33.2	33.2	91	30.9	0	0	---	0.00	30.177 
20:30	33.2	33.2	33.2	91	30.9	0	0	---	0.00	30.175 
20:35	33.2	33.2	33.2	91	30.9	0	0	---	0.00	30.175 
20:40	33.2	33.2	33.2	91	30.9	0	0	---	0.00	30.175 
20:45	33.2	33.2	33.2	91	30.9	0	0	---	0.00	30.178 
20:50	33.2	33.2	33.2	91	30.9	0	0	---	0.00	30.178 
20:55	33.2	33.2	33.2	91	30.9	0	0	---	0.00	30.178 
21:00	33.2	33.2	33.2	91	30.9	0	0	---	0.00	30.180 
21:05	33.2	33.2	33.2	91	30.9	0	0	---	0.01	30.180 
21:10	33.2	33.2	33.2	91	30.9	0	0	---	0.00	30.180 
21:15	33.2	33.2	33.2	92	31.1	0	0	---	0.00	30.178 
21:20	33.2	33.2	33.2	92	31.1	0	0	---	0.00	30.178 
21:25	33.2	33.2	33.2	92	31.1	0	0	---	0.00	30.178 
21:30	33.2	33.2	33.2	92	31.1	0	0	---	0.00	30.181 
21:35	33.1	33.1	33.1	92	31.0	0	0	---	0.00	30.181 
21:40	33.1	33.1	33.1	92	31.0	0	0	---	0.00	30.181 
21:45	33.1	33.1	33.1	92	31.0	0	0	---	0.00	30.181 
21:50	33.1	33.1	33.1	92	31.0	0	0	---	0.00	30.181 
21:55	33.1	33.1	33.1	92	31.0	0	0	---	0.00	30.181 
22:00	32.9	32.9	32.9	92	30.8	0	0	---	0.00	30.181 
22:05	32.9	32.9	32.9	92	30.8	0	0	---	0.00	30.181 
22:10	32.8	32.8	32.8	92	30.7	0	0	---	0.00	30.181 
22:15	32.7	32.7	32.7	92	30.6	0	0	---	0.00	30.178 
22:20	32.7	32.7	32.7	92	30.6	0	0	---	0.00	30.178 
22:25	32.5	32.5	32.5	92	30.4	0	0	---	0.00	30.178 
22:30	32.4	32.4	32.4	92	30.3	0	0	---	0.00	30.177 
22:35	32.2	32.2	32.2	92	30.1	0	0	---	0.00	30.177 
22:40	32.1	32.1	32.1	92	30.0	0	0	---	0.00	30.177 
22:45	31.9	31.9	31.9	92	29.8	0	0	---	0.00	30.169 
22:50	31.8	31.8	31.8	92	29.7	0	0	---	0.00	30.169 
22:55	31.8	31.8	31.8	92	29.7	0	0	---	0.00	30.169 
23:00	31.8	31.8	31.8	92	29.7	0	0	---	0.00	30.175 
23:05	31.8	31.8	31.8	92	29.7	0	0	---	0.00	30.175 
23:10	31.8	31.8	31.8	92	29.7	0	0	---	0.00	30.175 
23:15	31.8	31.8	31.8	92	29.7	0	0	---	0.00	30.181 
23:20	31.9	31.9	31.9	92	29.8	0	0	---	0.00	30.181 
23:25	31.9	31.9	31.9	92	29.8	0	0	---	0.00	30.181 
23:30	31.8	31.8	31.8	92	29.7	0	0	---	0.00	30.181 
23:35	31.9	31.9	31.9	92	29.8	0	0	---	0.00	30.181 
23:40	31.9	31.9	31.9	92	29.8	0	0	---	0.00	30.181 
23:45	31.8	31.8	31.8	92	29.7	0	0	---	0.00	30.178 
23:50	31.8	31.8	31.8	92	29.7	0	0	---	0.00	30.178 
23:55	31.8	31.8	31.8	92	29.7	0	0	---	0.00	30.178 

CoCoRaHS
IN-AL-39
A2 Web Hosting
Creative Commons License
GoDaddy
search engine by freefind advanced

loaded 2018-11-17 14:37:40 • last modified 2010-11-18 10:43:29
Privacy PolicyDisclaimer
• wx.awcolley.com is powered by PmWiki v.2002016 •
• all content (unless otherwise noted) © 2018 A W Colley